Regional Weather Roundup
Issued by NWS

Home | Current Version | Previous Version | Graphics & Text | Print | Product List | Glossary On
Versions: 1 2 3 4 5 6 7 8 9 10 11 12 13 14 15 16 17 18 19 20 21 22 23 24 25 26 27 28 29 30 31 32 33 34 35 36 37 38 39 40 41 42 43 44 45 46 47 48 49 50
000
ASUS43 KOAX 201810
RWRNE

WEATHER ROUNDUP FOR NEBRASKA
NATIONAL WEATHER SERVICE OMAHA NE
100 PM CDT FRI APR 20 2018

NOTES: SATELLITE DATA IS BEING USED TO AUGMENT CLOUD COVER ABOVE
       12000 FEET.
       "FAIR" INDICATES FEW OR NO CLOUDS BELOW 12,000 FEET WITH NO
       SIGNIFICANT WEATHER AND/OR OBSTRUCTIONS TO VISIBILITY.


NEZ001>004-019>022-054>056-201900-
NEBRASKA PANHANDLE

CITY           SKY/WX    TMP DP  RH WIND       PRES   REMARKS
SCOTTSBLUFF    CLOUDY    40  33  76 SE28G35   30.10R WCI  29
6HR MIN TEMP:  40; 6HR MAX TEMP:  45; 6HR PCP: TRACE;

ALLIANCE       LGT SNOW  36  35  96 SE21      30.13R FOG     WCI  25
6HR MIN TEMP:  37; 6HR MAX TEMP:  43; 6HR PCP:  0.07;

CHADRON        CLOUDY    46  36  68 S22       30.11F
6HR MIN TEMP:  44; 6HR MAX TEMP:  52; 6HR PCP: TRACE;

GORDON         RAIN      41  36  82 SE10      30.17S
6HR MIN TEMP:  38; 6HR MAX TEMP:  46; 6HR PCP:  0.05;

KIMBALL        LGT RAIN  38  33  84 SE24      30.06S WCI  27
SIDNEY         HVY SNOW  33  32  96 SE22G32   30.11R VSB 1/4 WCI  21
6HR MIN TEMP:  33; 6HR MAX TEMP:  41; 6HR PCP:  0.21;

$$

NEZ057>060-069>072-079>082-201900-
SOUTHWEST NEBRASKA

CITY           SKY/WX    TMP DP  RH WIND       PRES   REMARKS
NORTH PLATTE   CLOUDY    47  32  56 SE12G20   30.21F
6HR MIN TEMP:  43; 6HR MAX TEMP:  47; 6HR PCP: TRACE;

IMPERIAL       LGT RAIN  42  33  70 E14       30.18R
6HR MIN TEMP:  39; 6HR MAX TEMP:  46; 6HR PCP: TRACE;

LEXINGTON      CLOUDY    52  32  46 SE20      30.23F
MCCOOK         CLOUDY    48  31  51 SE17G28   30.17F
6HR MIN TEMP:  42; 6HR MAX TEMP:  48;

OGALLALA       CLOUDY    47  31  54 SE15      30.18S
$$

NEZ005>010-023>029-035>040-094-201900-
NORTH CENTRAL NEBRASKA

CITY           SKY/WX    TMP DP  RH WIND       PRES   REMARKS
VALENTINE      CLOUDY    50  30  46 S20G25    30.23F
6HR MIN TEMP:  33; 6HR MAX TEMP:  50;

AINSWORTH      CLOUDY    49  32  52 S14       30.26R
BROKEN BOW     CLOUDY    50  32  50 SE20G29   30.25F
6HR MIN TEMP:  35; 6HR MAX TEMP:  50;

O`NEILL        CLOUDY    52  34  50 S15G21    30.30F
ORD            CLOUDY    50  32  50 SE15G22   30.28F
6HR MIN TEMP:  35; 6HR MAX TEMP:  50;

THEDFORD       CLOUDY    50  32  49 S22       30.24S
$$

NEZ041-046>049-061>064-073>077-083>087-201900-
SOUTH CENTRAL NEBRASKA

CITY           SKY/WX    TMP DP  RH WIND       PRES   REMARKS
GRAND ISLAND   CLOUDY    55  33  43 SE17G26   30.29F
6HR MIN TEMP:  37; 6HR MAX TEMP:  55;

AURORA         PTSUNNY   55  31  39 SE18      30.29F
HASTINGS       PTSUNNY   54  32  43 SE18G28   30.28F
6HR MIN TEMP:  37; 6HR MAX TEMP:  54;

HEBRON         PTSUNNY   59  30  33 SE17      30.30F
HOLDREGE       CLOUDY    50  33  51 SE20      30.23F
KEARNEY        CLOUDY    52  32  46 SE17G24   30.26F
YORK             N/A     55  32  41 S20G25    30.31F
$$

NEZ011>018-030>034-042>045-201900-
NORTHEAST NEBRASKA

CITY           SKY/WX    TMP DP  RH WIND       PRES   REMARKS
NORFOLK        PTSUNNY   55  31  39 S16G28    30.32F
6HR MIN TEMP:  32; 6HR MAX TEMP:  56;

ALBION         CLOUDY    53  32  45 SE18G24   30.31F
BLAIR          CLOUDY    57  30  36 SE12G20   30.37F
COLUMBUS       CLOUDY    56  32  40 SE15      30.34F
FREMONT        PTSUNNY   58  31  35 SE14G20   30.37F
TEKAMAH        PTSUNNY   56  31  38 SE13      30.38F
6HR MIN TEMP:  31; 6HR MAX TEMP:  57;

WAYNE          PTSUNNY   55  32  41 S15       30.37F
$$

NEZ050>053-065>068-078-088>093-201900-
SOUTHEAST NEBRASKA

CITY           SKY/WX    TMP DP  RH WIND       PRES   REMARKS
LINCOLN        CLOUDY    59  31  34 SE14      30.36F
6HR MIN TEMP:  33; 6HR MAX TEMP:  59;

OMAHA EPPLEY   CLOUDY    58  30  34 SE15      30.38F
6HR MIN TEMP:  35; 6HR MAX TEMP:  58;

BEATRICE       CLOUDY    59  32  36 SE17G24   30.33F
FALLS CITY     PTSUNNY   60  28  29 SE16      30.37F
6HR MIN TEMP:  33; 6HR MAX TEMP:  60;

NEBRASKA CITY  CLOUDY    58  32  37 S12G18    30.38F
PLATTSMOUTH    CLOUDY    56  30  37 SE10      30.38F
$$

NEZ044-045-051>053-067-201900-
OMAHA AREA

CITY           SKY/WX    TMP DP  RH WIND       PRES   REMARKS
OMAHA EPPLEY   CLOUDY    58  30  34 SE15      30.38F
6HR MIN TEMP:  35; 6HR MAX TEMP:  58;

BLAIR          CLOUDY    57  30  36 SE12G20   30.37F
FREMONT        PTSUNNY   58  31  35 SE14G20   30.37F
MILLARD        PTSUNNY   57  32  37 SE16      30.38F
OFFUTT AFB     CLOUDY    57  31  36 E15       30.37F
PLATTSMOUTH    CLOUDY    56  30  37 SE10      30.38F
WAHOO          FAIR      58  25  27 SE16G25   30.36F
$$




USA.gov is the U.S. government's official web portal to all federal, state and local government web resources and services.